Satellite: GOLIAT Catalog number: 38085 Epoch time: 14079.44993017 Element set: 899 Inclination: 069.4592 deg RA of node: 227.5309 deg Eccentricity: 0.0465679 Arg of perigee: 125.1999 deg Mean anomaly: 306.9912 deg Mean motion: 14.83528616 rev/day Decay rate: 1.42637e-03 rev/day^2 Epoch rev: 11002 Checksum: 351
Satellite: HORYU-2 Catalog number: 38340 Epoch time: 14078.85890391 Element set: 797 Inclination: 098.2540 deg RA of node: 034.6223 deg Eccentricity: 0.0013602 Arg of perigee: 097.5938 deg Mean anomaly: 262.6849 deg Mean motion: 14.72067296 rev/day Decay rate: 2.986e-05 rev/day^2 Epoch rev: 9865 Checksum: 350
Satellite: RS-40 Catalog number: 38735 Epoch time: 14079.23180290 Element set: 519 Inclination: 082.4813 deg RA of node: 343.0134 deg Eccentricity: 0.0017785 Arg of perigee: 087.1616 deg Mean anomaly: 273.1502 deg Mean motion: 12.42557493 rev/day Decay rate: 2.4e-07 rev/day^2 Epoch rev: 7453 Checksum: 290
Satellite: PROITERES Catalog number: 38756 Epoch time: 14079.18195009 Element set: 673 Inclination: 098.2282 deg RA of node: 166.0215 deg Eccentricity: 0.0011614 Arg of perigee: 311.8957 deg Mean anomaly: 048.1246 deg Mean motion: 14.74755587 rev/day Decay rate: 1.398e-05 rev/day^2 Epoch rev: 8206 Checksum: 321
Satellite: BEESAT-3 Catalog number: 39134 Epoch time: 14078.39402034 Element set: 529 Inclination: 064.8745 deg RA of node: 062.4989 deg Eccentricity: 0.0020005 Arg of perigee: 324.9205 deg Mean anomaly: 035.0605 deg Mean motion: 15.03759262 rev/day Decay rate: 1.1196e-04 rev/day^2 Epoch rev: 5015 Checksum: 284
Satellite: BEESAT-2 Catalog number: 39136 Epoch time: 14079.22411173 Element set: 519 Inclination: 064.8728 deg RA of node: 060.1141 deg Eccentricity: 0.0019972 Arg of perigee: 324.1151 deg Mean anomaly: 035.8629 deg Mean motion: 15.03357825 rev/day Decay rate: 9.887e-05 rev/day^2 Epoch rev: 5027 Checksum: 301
Satellite: LO-75 Catalog number: 39382 Epoch time: 14079.49455652 Element set: 157 Inclination: 040.4948 deg RA of node: 264.8740 deg Eccentricity: 0.0013056 Arg of perigee: 331.1720 deg Mean anomaly: 028.8873 deg Mean motion: 15.31893680 rev/day Decay rate: 8.2465e-04 rev/day^2 Epoch rev: 1839 Checksum: 337
Satellite: ZACUBE-1 Catalog number: 39417 Epoch time: 14079.00710074 Element set: 249 Inclination: 097.7840 deg RA of node: 152.6822 deg Eccentricity: 0.0063015 Arg of perigee: 171.6257 deg Mean anomaly: 188.6000 deg Mean motion: 14.77672428 rev/day Decay rate: 2.843e-05 rev/day^2 Epoch rev: 1752 Checksum: 297
Satellite: TRITON-1 Catalog number: 39427 Epoch time: 14079.20743573 Element set: 101 Inclination: 097.7704 deg RA of node: 150.4927 deg Eccentricity: 0.0119316 Arg of perigee: 173.0252 deg Mean anomaly: 187.2641 deg Mean motion: 14.65022844 rev/day Decay rate: 2.747e-05 rev/day^2 Epoch rev: 1736 Checksum: 294
Satellite: DELFIN3XT Catalog number: 39428 Epoch time: 14079.13515939 Element set: 105 Inclination: 097.7685 deg RA of node: 149.9652 deg Eccentricity: 0.0130649 Arg of perigee: 174.2090 deg Mean anomaly: 186.0657 deg Mean motion: 14.62701049 rev/day Decay rate: 4.362e-05 rev/day^2 Epoch rev: 1731 Checksum: 318
Satellite: GOMX-1 Catalog number: 39430 Epoch time: 14079.14880921 Element set: 321 Inclination: 097.7662 deg RA of node: 148.8602 deg Eccentricity: 0.0157524 Arg of perigee: 176.9392 deg Mean anomaly: 183.2816 deg Mean motion: 14.56465084 rev/day Decay rate: 2.640e-05 rev/day^2 Epoch rev: 1725 Checksum: 315
Satellite: MO-76 Catalog number: 39436 Epoch time: 14079.53021053 Element set: 136 Inclination: 097.7858 deg RA of node: 154.6454 deg Eccentricity: 0.0029599 Arg of perigee: 180.9871 deg Mean anomaly: 179.1795 deg Mean motion: 14.87174321 rev/day Decay rate: 2.2746e-04 rev/day^2 Epoch rev: 1768 Checksum: 357
Satellite: LO-74 Catalog number: 39440 Epoch time: 14079.27422343 Element set: 99 Inclination: 097.7775 deg RA of node: 151.9943 deg Eccentricity: 0.0085093 Arg of perigee: 170.5502 deg Mean anomaly: 189.7318 deg Mean motion: 14.72647148 rev/day Decay rate: 2.922e-05 rev/day^2 Epoch rev: 1749 Checksum: 342
Satellite: PUCPSAT-1 Catalog number: 39442 Epoch time: 14079.20725040 Element set: 96 Inclination: 097.7879 deg RA of node: 154.3099 deg Eccentricity: 0.0035078 Arg of perigee: 175.9793 deg Mean anomaly: 184.1592 deg Mean motion: 14.85446544 rev/day Decay rate: 4.444e-05 rev/day^2 Epoch rev: 1641 Checksum: 333
Satellite: LITSAT-1 Catalog number: 39568 Epoch time: 14079.42599258 Element set: 27 Inclination: 051.6495 deg RA of node: 179.0109 deg Eccentricity: 0.0008449 Arg of perigee: 343.9826 deg Mean anomaly: 062.8096 deg Mean motion: 15.57366566 rev/day Decay rate: 1.56327e-03 rev/day^2 Epoch rev: 311 Checksum: 340
Satellite: LITUANSAT Catalog number: 39569 Epoch time: 14079.49510025 Element set: 67 Inclination: 051.6460 deg RA of node: 178.8277 deg Eccentricity: 0.0007174 Arg of perigee: 334.0342 deg Mean anomaly: 026.0803 deg Mean motion: 15.55307776 rev/day Decay rate: 1.07661e-03 rev/day^2 Epoch rev: 312 Checksum: 290
Satellite: SHINAISAT Catalog number: 39572 Epoch time: 14079.14845785 Element set: 35 Inclination: 065.0152 deg RA of node: 350.1913 deg Eccentricity: 0.0011991 Arg of perigee: 280.7395 deg Mean anomaly: 079.2430 deg Mean motion: 15.60587113 rev/day Decay rate: 4.9372e-04 rev/day^2 Epoch rev: 317 Checksum: 298
Satellite: OPUSAT Catalog number: 39575 Epoch time: 14079.51591816 Element set: 43 Inclination: 065.0161 deg RA of node: 348.8051 deg Eccentricity: 0.0007065 Arg of perigee: 297.7499 deg Mean anomaly: 062.3453 deg Mean motion: 15.62102079 rev/day Decay rate: 6.2602e-04 rev/day^2 Epoch rev: 324 Checksum: 294
Satellite: TEIKYOSAT Catalog number: 39576 Epoch time: 14079.87800545 Element set: 35 Inclination: 065.0089 deg RA of node: 347.3612 deg Eccentricity: 0.0008720 Arg of perigee: 256.8390 deg Mean anomaly: 103.2304 deg Mean motion: 15.67042525 rev/day Decay rate: 3.28985e-03 rev/day^2 Epoch rev: 328 Checksum: 304
Satellite: IFT-1 Catalog number: 39577 Epoch time: 14078.86233857 Element set: 35 Inclination: 065.0141 deg RA of node: 350.9360 deg Eccentricity: 0.0004629 Arg of perigee: 305.1464 deg Mean anomaly: 054.9270 deg Mean motion: 15.63458735 rev/day Decay rate: 7.8527e-04 rev/day^2 Epoch rev: 313 Checksum: 307
Satellite: INVADER Catalog number: 39578 Epoch time: 14078.90812102 Element set: 31 Inclination: 065.0109 deg RA of node: 350.6250 deg Eccentricity: 0.0003728 Arg of perigee: 301.8132 deg Mean anomaly: 058.2664 deg Mean motion: 15.66395038 rev/day Decay rate: 1.63566e-03 rev/day^2 Epoch rev: 314 Checksum: 277
Satellite: STARS-II Catalog number: 39579 Epoch time: 14079.23975825 Element set: 33 Inclination: 065.0109 deg RA of node: 349.5726 deg Eccentricity: 0.0007383 Arg of perigee: 254.7080 deg Mean anomaly: 105.3487 deg Mean motion: 15.66680730 rev/day Decay rate: 2.36384e-03 rev/day^2 Epoch rev: 319 Checksum: 321
/EX
participants (1)
-
Ray Hoad